This is the latest recevied weather packets stored in our database for station/object OK1LPD-6. If no packets are shown the sender has not sent any weather packets the latest 10 day(s).
| Time | Temp. | Humidity | Pressure | Rain* | Wind** | Luminosity | Snow |
|---|---|---|---|---|---|---|---|
| 1777872300 | 12.22° C | 72% | 1013.8 hPa | 0 mm | - | - | - |
| 1777871723 | 12.22° C | 72% | 1013.7 hPa | 0 mm | - | - | - |
| 1777871100 | 11.67° C | 72% | 1013.7 hPa | 0 mm | - | - | - |
| 1777870500 | 11.67° C | 73% | 1013.5 hPa | 0 mm | - | - | - |
| 1777869918 | 11.67° C | 73% | 1013.3 hPa | 0 mm | - | - | - |
| 1777869301 | 11.11° C | 73% | 1013.3 hPa | 0 mm | - | - | - |
| 1777868701 | 11.11° C | 74% | 1013.4 hPa | 0 mm | - | - | - |
| 1777868121 | 11.11° C | 74% | 1013.4 hPa | 0 mm | - | - | - |
| 1777867501 | 10.56° C | 75% | 1013.5 hPa | 0 mm | - | - | - |
| 1777866901 | 10.56° C | 76% | 1013.7 hPa | 0 mm | - | - | - |
| 1777866313 | 10.56° C | 78% | 1013.5 hPa | 0 mm | - | - | - |
| 1777865701 | 10.56° C | 79% | 1013.5 hPa | 0 mm | - | - | - |
| 1777865101 | 10.56° C | 74% | 1013.5 hPa | 0 mm | - | - | - |
| 1777864513 | 10.56° C | 73% | 1013.2 hPa | 0 mm | - | - | - |
| 1777863901 | 11.11° C | 72% | 1013.2 hPa | 0 mm | - | - | - |
| 1777863302 | 11.11° C | 72% | 1013.4 hPa | 0 mm | - | - | - |
| 1777862711 | 11.11° C | 73% | 1013.4 hPa | 0 mm | - | - | - |
| 1777862101 | 11.11° C | 73% | 1013.4 hPa | 0 mm | - | - | - |
| 1777861501 | 11.67° C | 74% | 1013.4 hPa | 0 mm | - | - | - |
| 1777860914 | 11.67° C | 75% | 1013.3 hPa | 0 mm | - | - | - |
| 1777860301 | 11.67° C | 71% | 1013.2 hPa | 0 mm | - | - | - |
| 1777859702 | 11.67° C | 70% | 1012.9 hPa | 0 mm | - | - | - |
| 1777859112 | 12.22° C | 70% | 1013.1 hPa | 0 mm | - | - | - |
| 1777858501 | 12.22° C | 68% | 1013.1 hPa | 0 mm | - | - | - |
| 1777857903 | 12.22° C | 67% | 1013 hPa | 0 mm | - | - | - |
* Rain latest hour (hover to see other rain measurements)
** Current wind speed in m/s (hover to see current wind gust speed)